Wind_Speed
10 13 16 18 21 21 21 19 18 16 14 12 10 8 6 5 4 3 2 2 1 1 1 2 2 2 2 3 3 3 3 4 4 4 5 5 6 7 8 10 11 12 13
7 11 14 17 18 19 19 18 17 15 13 12 9 7 6 5 4 3 3 2 2 1 0 1 2 2 2 2 3 3 3 3 3 4 4 5 6 7 8 9 10 11 12
5 9 12 15 16 17 17 17 16 14 13 11 9 8 6 5 4 4 3 3 2 1 0 0 1 1 2 3 3 3 3 4 4 5 5 6 7 8 8 9 11 12 12
4 7 10 12 15 16 17 16 15 13 11 10 9 7 6 5 5 4 4 3 2 2 1 1 0 0 1 2 3 4 4 5 6 6 7 7 8 9 10 11 12 13 13
3 6 9 11 13 15 15 14 12 11 10 9 8 7 6 5 5 5 4 4 3 3 2 2 2 2 2 3 4 5 6 7 8 8 9 9 10 11 12 13 14 14 15
4 5 8 10 11 12 12 12 11 10 9 9 8 7 6 6 6 6 5 5 5 4 4 4 4 4 5 6 7 7 8 9 10 11 11 12 13 14 15 15 15 15 16
3 4 6 9 11 11 11 10 10 9 9 9 8 7 7 7 7 7 6 6 7 7 7 7 7 8 9 9 10 10 11 11 12 13 13 14 15 16 16 16 17 18 18
1 2 4 7 8 9 9 9 9 9 9 9 9 9 9 9 9 9 8 8 9 9 10 11 11 11 11 12 13 13 14 14 15 15 15 16 17 18 18 19 20 20 21
1 2 4 5 7 8 9 9 9 9 9 10 10 10 11 11 11 11 11 11 12 13 13 14 14 14 15 16 16 16 17 17 18 18 18 19 19 19 20 21 21 22 23
3 4 5 6 7 8 9 10 10 11 11 12 12 12 13 14 14 14 14 14 15 16 17 17 18 18 18 19 19 20 20 20 20 21 21 21 22 22 22 23 24 24 25
5 6 6 7 8 9 10 12 13 13 13 13 14 15 16 16 17 17 18 19 19 20 20 21 22 22 22 22 22 23 23 23 23 23 23 23 23 24 24 24 25 25 26
7 7 9 9 10 11 12 13 14 14 15 16 16 17 18 19 20 21 21 22 23 24 25 25 25 26 26 26 25 25 25 26 26 26 25 25 25 25 25 26 26 26 27
9 9 10 11 11 12 13 14 15 16 17 17 18 19 21 22 22 23 24 25 26 27 28 28 28 28 28 28 28 28 28 28 28 28 28 28 27 28 28 28 28 28 29
11 11 11 12 13 14 14 16 17 18 19 19 20 22 23 24 25 26 27 28 28 29 30 31 31 31 30 30 30 30 30 30 30 30 30 30 30 30 31 31 31 31 31
14 14 14 15 16 16 17 18 19 20 20 21 22 24 25 26 27 28 29 29 30 31 32 32 33 33 32 32 32 33 33 32 32 32 32 33 33 33 34 34 34 34 33
18 18 19 19 19 20 20 20 21 22 22 23 24 25 26 27 28 29 30 31 32 33 34 34 34 35 35 35 35 36 35 35 35 35 35 36 36 37 37 37 38 37 37
23 23 23 23 24 23 23 23 24 24 25 25 26 27 27 29 30 31 32 34 35 36 36 37 38 38 38 39 39 40 40 39 39 39 39 40 40 40 41 41 41 41 40
25 26 27 27 27 27 27 27 28 28 28 28 29 30 30 31 32 34 35 36 38 39 39 40 41 42 42 43 44 44 45 44 44 44 44 44 44 44 44 45 44 44 43
27 29 29 30 31 32 32 32 32 32 32 32 32 33 34 35 37 38 39 41 41 42 43 43 45 45 45 47 47 48 49 49 48 48 48 48 48 48 48 49 48 47 46
27 30 32 33 33 34 35 36 36 35 35 35 35 36 37 38 40 41 43 44 45 46 47 48 48 49 50 51 51 52 53 53 53 53 53 52 52 52 52 52 51 51 50
27 29 31 32 33 34 35 35 36 36 36 37 38 39 40 42 43 44 45 46 48 49 50 51 52 53 54 55 55 56 57 58 57 57 57 57 56 56 56 56 56 55 54
27 27 28 30 31 32 32 33 34 35 36 37 39 41 42 44 45 46 48 49 50 51 53 54 55 56 57 58 59 60 61 62 62 62 62 62 62 61 61 61 60 59 59
27 27 27 29 29 30 31 32 33 35 37 38 40 42 44 45 46 48 49 51 52 54 55 57 58 60 61 63 64 64 65 66 67 67 67 67 67 67 66 65 64 64 63
28 29 29 29 30 30 32 33 35 36 38 39 41 43 44 46 48 49 51 53 55 57 59 60 62 63 65 66 67 68 69 70 71 71 71 71 71 71 70 69 68 67 66
29 29 29 30 31 32 34 35 36 38 39 41 43 44 46 48 50 52 55 57 59 61 62 64 65 67 68 69 70 71 72 72 73 73 73 72 72 72 71 71 70 69 68
29 30 30 32 33 34 35 36 38 40 41 43 45 47 49 52 54 56 58 60 62 64 65 67 68 70 71 72 72 72 73 73 73 73 72 72 72 71 71 70 69 68 67
Wind_Direction
207 201 201 205 204 202 200 202 203 205 205 201 201 201 203 204 211 221 225 238 254 285 338 12 9 359 347 340 336 333 327 319 312 304 297 292 286 281 278 275 273 271 269
193 197 197 200 198 197 198 198 197 197 198 199 196 197 197 202 207 210 213 215 219 238 358 30 29 29 26 22 12 3 358 354 343 326 312 304 298 292 287 283 280 277 275
173 183 188 193 194 191 190 193 194 195 198 197 195 197 196 197 202 206 205 204 208 221 230 6 32 36 36 30 20 13 7 359 349 337 325 314 306 299 294 291 286 282 280
137 165 176 181 184 185 185 188 190 194 197 197 200 200 197 200 204 208 205 205 213 221 221 229 254 356 11 7 2 359 352 345 337 331 324 317 310 305 299 294 290 286 283
115 149 160 169 177 180 182 186 189 194 198 201 202 202 205 207 209 209 211 217 226 235 238 242 257 285 304 314 318 322 324 324 323 321 317 313 310 307 303 299 293 288 285
105 135 161 168 177 181 183 188 193 201 206 208 211 213 215 217 219 220 223 230 239 248 257 263 271 279 284 290 293 298 303 307 309 310 310 308 308 306 304 301 296 292 288
97 136 164 178 181 185 188 194 202 209 213 217 222 224 226 227 231 232 234 240 249 257 264 270 274 278 282 284 287 289 293 295 297 300 301 302 303 303 303 301 298 295 292
58 171 171 178 184 189 198 207 211 216 223 229 232 234 235 237 239 242 245 249 257 263 267 271 273 276 279 281 283 285 287 288 291 292 294 296 298 299 299 299 298 295 293
321 217 208 201 204 207 212 215 222 230 235 238 239 241 244 246 249 251 253 257 261 265 269 272 273 274 276 279 281 283 285 285 286 287 289 291 293 294 296 297 297 296 294
288 259 240 232 228 226 228 232 236 240 242 243 245 247 250 253 256 258 260 262 265 267 270 272 274 275 277 278 280 282 283 284 285 285 286 287 287 289 291 293 294 294 293
283 267 258 249 244 241 242 243 245 247 249 250 251 252 254 257 260 263 265 267 269 271 272 274 275 276 277 279 280 282 282 283 284 285 285 286 287 287 288 289 291 292 292
284 273 261 255 252 251 250 251 253 255 256 257 257 257 258 260 263 266 268 270 272 273 275 276 277 278 279 280 281 283 283 283 283 284 284 285 285 287 287 288 289 291 290
277 274 267 262 260 259 258 259 260 261 262 261 260 261 262 263 265 268 270 271 273 275 277 278 279 280 282 283 283 283 283 284 284 284 284 285 285 286 287 288 289 289 289
274 269 267 267 268 267 266 264 263 264 264 264 265 266 266 268 269 270 272 274 276 278 280 281 282 283 283 283 283 283 283 284 284 284 285 286 286 286 287 288 289 289 289
271 270 269 269 270 270 270 270 269 267 267 266 266 267 269 270 272 273 275 277 279 280 281 282 283 283 284 284 283 283 283 284 284 285 285 286 286 287 288 288 288 288 288
266 267 266 266 266 267 269 270 271 270 269 268 267 269 271 272 273 274 276 278 280 280 280 281 282 283 284 283 283 283 283 283 284 285 284 285 286 287 287 287 287 286 286
263 264 264 264 264 266 266 266 267 268 268 269 270 271 273 275 276 277 279 280 280 281 281 282 282 283 283 283 284 283 284 283 283 284 284 285 285 286 285 284 284 284 284
263 263 263 262 262 263 264 265 264 265 267 269 270 273 275 276 278 279 279 280 281 281 281 282 284 284 284 284 284 284 285 284 283 284 285 285 284 284 284 283 283 282 282
262 262 261 260 260 261 262 261 263 264 265 268 270 273 275 277 279 280 281 282 282 282 282 282 283 283 283 284 284 284 284 284 284 284 284 283 283 283 282 282 281 281 281
263 260 259 260 260 260 258 260 261 262 263 266 270 273 276 278 279 280 281 282 282 282 283 283 283 283 283 284 284 284 284 284 283 283 282 282 282 282 281 281 280 280 280
266 264 260 257 259 262 261 261 265 266 269 271 274 277 279 280 281 282 282 283 283 284 284 284 284 284 285 285 285 284 284 283 283 282 282 282 281 280 279 279 279 279 278
269 267 263 261 262 264 264 267 269 270 272 274 277 279 280 281 282 283 283 284 284 285 284 285 285 285 285 284 283 283 282 282 282 281 281 280 279 279 278 278 278 277 277
270 271 270 270 270 271 273 275 275 276 276 278 280 281 282 282 283 284 285 285 285 285 285 285 285 284 284 283 283 282 282 281 281 280 279 279 278 278 277 277 276 275 275
272 272 273 274 275 276 277 279 279 280 281 282 283 283 284 285 286 286 286 286 286 286 286 285 285 284 284 283 283 283 282 281 280 280 279 278 277 277 276 275 274 273 273
276 278 278 279 279 279 280 282 283 284 285 285 286 287 287 288 288 288 288 288 288 287 287 287 286 286 285 284 284 283 282 282 281 280 279 278 277 276 275 274 273 272 271
277 280 282 282 283 284 285 286 287 288 288 289 289 290 290 290 290 290 290 290 289 289 289 289 288 287 287 286 285 284 283 283 282 281 280 279 277 276 275 274 272 271 270
Height
5845 5846 5849 5852 5855 5859 5864 5867 5870 5873 5875 5877 5879 5880 5882 5882 5882 5882 5882 5883 5883 5883 5882 5882 5881 5881 5880 5880 5879 5879 5879 5879 5878 5878 5878 5877 5877 5877 5876 5876 5876 5876 5876
5844 5846 5848 5851 5855 5858 5862 5866 5869 5872 5874 5877 5878 5879 5880 5881 5881 5881 5882 5882 5882 5882 5882 5881 5881 5880 5880 5879 5879 5879 5878 5878 5878 5877 5877 5876 5876 5875 5874 5874 5874 5873 5873
5845 5846 5848 5851 5854 5858 5862 5865 5868 5871 5874 5875 5877 5878 5879 5880 5880 5881 5881 5881 5881 5881 5881 5881 5880 5880 5880 5879 5879 5878 5878 5878 5877 5876 5876 5875 5875 5874 5873 5872 5871 5871 5870
5846 5847 5849 5851 5854 5858 5861 5865 5868 5871 5873 5874 5876 5877 5878 5879 5879 5880 5880 5881 5881 5881 5880 5880 5880 5879 5879 5879 5878 5878 5877 5877 5876 5875 5874 5874 5873 5872 5871 5870 5869 5868 5868
5848 5849 5850 5852 5855 5859 5861 5865 5868 5870 5872 5874 5875 5876 5877 5878 5878 5879 5879 5880 5880 5880 5880 5879 5879 5879 5878 5878 5877 5877 5876 5875 5874 5874 5873 5871 5870 5869 5869 5868 5866 5865 5864
5851 5851 5852 5853 5856 5859 5862 5865 5867 5869 5871 5872 5873 5874 5875 5876 5877 5878 5878 5878 5879 5879 5878 5878 5878 5878 5877 5877 5876 5875 5874 5873 5872 5871 5870 5869 5868 5867 5865 5864 5863 5862 5861
5853 5853 5853 5854 5857 5859 5862 5864 5866 5868 5870 5871 5872 5873 5874 5875 5875 5876 5876 5877 5877 5877 5877 5877 5876 5876 5875 5875 5874 5873 5872 5871 5870 5868 5867 5866 5864 5863 5861 5860 5859 5857 5856
5855 5855 5854 5855 5858 5860 5862 5864 5866 5867 5869 5870 5871 5871 5872 5873 5874 5874 5874 5874 5875 5875 5875 5874 5874 5873 5873 5872 5871 5870 5869 5868 5866 5865 5863 5862 5860 5858 5857 5855 5854 5852 5851
5856 5856 5856 5857 5858 5860 5861 5863 5865 5866 5867 5868 5869 5870 5870 5871 5871 5871 5872 5872 5872 5872 5872 5871 5871 5870 5869 5868 5867 5866 5865 5864 5862 5861 5859 5858 5856 5854 5852 5850 5849 5847 5845
5856 5856 5856 5857 5858 5859 5861 5862 5863 5864 5865 5866 5866 5867 5868 5868 5868 5868 5868 5868 5868 5868 5868 5867 5867 5866 5865 5864 5862 5861 5860 5859 5857 5856 5854 5852 5851 5849 5847 5845 5843 5841 5839
5855 5855 5856 5856 5857 5858 5859 5860 5861 5862 5862 5863 5863 5864 5864 5865 5865 5865 5865 5864 5864 5864 5863 5863 5862 5861 5860 5858 5857 5856 5854 5853 5851 5850 5848 5846 5845 5843 5841 5839 5837 5835 5833
5853 5853 5853 5854 5855 5856 5856 5857 5858 5858 5859 5859 5859 5860 5860 5860 5860 5860 5860 5860 5859 5859 5858 5857 5856 5855 5853 5852 5850 5849 5847 5846 5844 5843 5841 5839 5838 5836 5834 5832 5830 5828 5826
5850 5850 5851 5851 5852 5852 5853 5853 5853 5854 5854 5855 5855 5855 5855 5855 5855 5855 5854 5854 5853 5852 5852 5851 5849 5848 5847 5845 5843 5842 5840 5838 5837 5835 5833 5832 5830 5828 5826 5824 5822 5820 5818
5847 5847 5848 5848 5848 5848 5849 5849 5849 5849 5850 5850 5850 5850 5850 5850 5849 5849 5848 5848 5847 5846 5845 5844 5842 5841 5839 5837 5835 5834 5832 5830 5828 5827 5825 5823 5821 5819 5817 5816 5813 5811 5809
5843 5844 5844 5844 5844 5844 5844 5844 5845 5845 5844 5844 5844 5844 5844 5844 5843 5842 5842 5841 5840 5838 5837 5836 5834 5832 5831 5829 5827 5825 5823 5821 5819 5818 5816 5814 5812 5810 5808 5806 5804 5802 5800
5839 5839 5839 5839 5839 5839 5839 5839 5839 5839 5839 5838 5838 5838 5837 5837 5836 5835 5834 5833 5831 5830 5828 5827 5825 5823 5822 5820 5817 5815 5813 5811 5810 5808 5806 5804 5802 5799 5797 5795 5793 5791 5789
5833 5833 5833 5833 5833 5833 5833 5833 5833 5833 5832 5832 5831 5831 5830 5829 5828 5827 5826 5824 5822 5821 5819 5817 5815 5813 5811 5809 5807 5804 5802 5800 5799 5797 5794 5792 5790 5788 5786 5784 5781 5779 5777
5827 5827 5826 5826 5826 5826 5826 5826 5825 5825 5825 5824 5824 5823 5822 5821 5819 5818 5817 5815 5813 5811 5809 5806 5804 5802 5800 5797 5795 5792 5789 5788 5786 5784 5782 5780 5778 5776 5773 5771 5769 5767 5765
5820 5820 5819 5819 5819 5819 5818 5818 5817 5817 5816 5816 5815 5814 5813 5812 5810 5809 5807 5804 5802 5800 5797 5794 5792 5789 5787 5784 5781 5778 5776 5774 5772 5770 5767 5765 5764 5762 5759 5756 5754 5753 5752
5812 5812 5811 5811 5810 5810 5810 5809 5808 5807 5807 5806 5806 5805 5804 5802 5800 5798 5796 5793 5790 5787 5785 5782 5779 5776 5773 5770 5767 5763 5760 5758 5757 5754 5752 5750 5748 5746 5743 5740 5739 5738 5737
5804 5803 5803 5802 5802 5801 5801 5800 5799 5798 5797 5797 5796 5795 5793 5791 5789 5786 5784 5781 5778 5774 5771 5768 5764 5761 5758 5754 5751 5748 5744 5741 5739 5737 5735 5733 5731 5729 5726 5724 5722 5722 5720
5797 5796 5795 5794 5794 5793 5792 5791 5790 5789 5788 5787 5786 5784 5782 5780 5777 5774 5771 5768 5764 5761 5757 5753 5749 5745 5741 5738 5734 5730 5726 5723 5720 5718 5716 5714 5712 5710 5707 5706 5705 5703 5701
5790 5789 5788 5787 5786 5785 5784 5783 5782 5781 5779 5777 5775 5773 5771 5768 5764 5761 5758 5754 5750 5746 5742 5737 5733 5729 5724 5719 5716 5712 5708 5703 5700 5698 5695 5693 5691 5688 5686 5685 5684 5682 5681
5782 5781 5780 5779 5778 5777 5776 5774 5773 5771 5769 5767 5764 5761 5758 5755 5751 5747 5743 5739 5734 5729 5725 5720 5715 5710 5705 5700 5695 5691 5686 5682 5678 5675 5672 5670 5668 5665 5663 5662 5661 5660 5660
5775 5773 5772 5771 5770 5769 5767 5765 5763 5761 5758 5755 5752 5749 5745 5741 5737 5732 5727 5722 5717 5711 5706 5700 5694 5689 5685 5679 5673 5667 5663 5658 5654 5650 5648 5645 5642 5640 5639 5638 5637 5636 5637
5767 5766 5764 5763 5761 5759 5757 5755 5752 5749 5746 5743 5739 5735 5730 5726 5721 5716 5710 5704 5698 5692 5685 5679 5673 5667 5661 5656 5650 5644 5639 5634 5629 5624 5622 5620 5617 5614 5613 5612 5612 5612 5613